Location: Gleizolles
(44.4833°N, 6.7667°E)
Time: 21:49:43
(UTC+00:00)

Tiros 1 despin weight - Pass Details

Date: 04 July 2024
Orbit: 576 x 620 km, 48.2° (Epoch: 19 July)

Event Time Altitude Azimuth Distance (km) Brightness Sun altitude
Rises 13:18:58 0° 289° (WNW) 2,893 ? 60.0°
Reaches altitude 10° 13:21:31 10° 278° (W) 1,986 ? 59.6°
Maximum altitude 13:25:26 28° 219° (SW) 1,155 ? 59.1°
Drops below altitude 10° 13:29:20 10° 160° (SSE) 1,974 ? 58.5°
Sets 13:31:51 0° 149° (SSE) 2,873 ? 58.1°
